Tracking 19969 objects as of 12-Nov-2019
Live streaming from Space Station
objects crossing your sky now
Track the group of recently launched Starlink satellites

COSMOS 1275 DEB

Track COSMOS 1275 DEB now!
10-day predictions


NORAD ID: 12749
Int'l Code: 1981-053CS
Perigee: 944.7 km
Apogee: 1,037.7 km
Inclination: 82.8 °
Period: 104.8 minutes
Semi major axis: 7362 km
RCS: 0.0541 m2 (small)
Launch date: June 4, 1981
Source: Commonwealth of Independent States (former USSR) (CIS)
Launch site: PLESETSK MISSILE AND SPACE COMPLEX (PKMTR)

Note: This is SATELLITE DEBRIS
aabbcc
Your satellite tracking list
Your tracking list is empty




NASA's NSSDC Master Catalog

Two Line Element Set (TLE):
1 12749U 81053CS  19315.17390546  .00000145  00000-0  13577-3 0  9990
2 12749  82.8099  93.9997 0063124  44.6508  21.2366 13.74327173915115
Source of the keplerian elements: AFSPC